Weather History for Hutchinson, KS

Change the Weather History Date:

Tuesday, May 28, 2013

  Actual Average Record
Temperature  
Mean Temperature 79 °F -  
Max Temperature 90 °F 79 °F 93 °F (2004)
Min Temperature 69 °F 53 °F 44 °F (1997)
Cooling Degree Days 14    
Growing Degree Days 29 (Base 50)    
Moisture  
Dew Point 67 °F    
Average Humidity 72    
Maximum Humidity 90    
Minimum Humidity 50    
Precipitation  
Precipitation 0.00 in - - ()
Sea Level Pressure  
Sea Level Pressure 29.60 in    
Wind  
Wind Speed 15 mph (South)    
Max Wind Speed 26 mph    
Max Gust Speed 41 mph    
Visibility 10 miles    
Events      
Averages and records for this station are not official NWS values.
T = Trace of Precipitation, MM = Missing Value Source: NWS Daily Summary

Daily Weather History Graph

Daily Weather History Graph

Search for Another Location

Airport:

Trip Planner

Search our weather history database for the weather conditions in past years. The results will help you decide how hot, cold, wet, or windy it might be!

Date:

Astronomy

May. 28, 2013 Rise Set
Actual Time 6:11 AM CDT 8:45 PM CDT
Civil Twilight 5:41 AM CDT 9:16 PM CDT
Nautical Twilight 5:03 AM CDT 9:54 PM CDT
Astronomical Twilight 4:20 AM CDT 10:37 PM CDT
Moon No Moon Rise 10:00 AM CDT (5/28)
Length of Visible Light 15h 35m
Length of Day
14h 33m
Waning Gibbous, 82% of the Moon is Illuminated
May 28
Waning Gibbous
May 31
Last Quarter
Jun 8
New
Jun 16
First Quarter
Jun 23
Full

Hourly Weather History & Observations

Time (CDT) Temp. Heat Index Dew Point Humidity Pressure Visibility Wind Dir Wind Speed Gust Speed Precip Events Conditions
12:52 AM 72.0 °F - 66.0 °F 81% 29.59 in 10.0 mi SSE 13.8 mph - N/A   Clear
1:52 AM 72.0 °F - 66.0 °F 81% 29.58 in 10.0 mi South 17.3 mph 25.3 mph N/A   Clear
2:52 AM 72.0 °F - 66.0 °F 81% 29.58 in 10.0 mi South 11.5 mph - N/A   Clear
3:52 AM 71.1 °F - 66.0 °F 84% 29.58 in 10.0 mi South 10.4 mph - N/A   Clear
4:52 AM 70.0 °F - 66.0 °F 87% 29.58 in 10.0 mi SSE 8.1 mph - N/A   Clear
5:52 AM 69.1 °F - 66.0 °F 90% 29.59 in 9.0 mi SSE 8.1 mph - N/A   Clear
6:52 AM 70.0 °F - 66.0 °F 87% 29.60 in 8.0 mi SSE 8.1 mph - N/A   Clear
7:52 AM 71.1 °F - 66.9 °F 87% 29.62 in 9.0 mi SSE 9.2 mph - N/A   Clear
8:52 AM 73.0 °F - 68.0 °F 84% 29.62 in 10.0 mi SSE 10.4 mph - N/A   Clear
9:52 AM 75.9 °F - 68.0 °F 76% 29.62 in 10.0 mi SSE 13.8 mph - N/A   Scattered Clouds
10:05 AM 75.2 °F - 69.8 °F 83% 29.68 in 10.0 mi SSE 12.7 mph - N/A   Mostly Cloudy
10:52 AM 79.0 °F - 69.1 °F 72% 29.61 in 10.0 mi SSE 20.7 mph 25.3 mph N/A   Overcast
11:34 AM 80.6 °F 83.9 °F 69.8 °F 70% 29.68 in 10.0 mi South 17.3 mph 26.5 mph N/A   Overcast
11:52 AM 80.1 °F 82.9 °F 69.1 °F 69% 29.61 in 10.0 mi South 18.4 mph 25.3 mph N/A   Overcast
12:52 PM 84.9 °F 88.2 °F 68.0 °F 57% 29.58 in 10.0 mi South 18.4 mph 26.5 mph N/A   Scattered Clouds
1:52 PM 89.1 °F 92.9 °F 68.0 °F 50% 29.57 in 10.0 mi SSW 24.2 mph 29.9 mph N/A   Scattered Clouds
2:52 PM 88.0 °F 91.4 °F 68.0 °F 51% 29.57 in 10.0 mi South 20.7 mph 29.9 mph N/A   Mostly Cloudy
3:52 PM 88.0 °F 93.8 °F 71.1 °F 57% 29.57 in 10.0 mi South 24.2 mph 31.1 mph N/A   Mostly Cloudy
4:52 PM 86.0 °F 90.1 °F 69.1 °F 57% 29.56 in 10.0 mi South 26.5 mph 34.5 mph N/A   Clear
5:52 PM 82.9 °F 85.8 °F 68.0 °F 60% 29.54 in 10.0 mi South 25.3 mph 38.0 mph N/A   Clear
6:52 PM 78.1 °F - 66.0 °F 66% 29.55 in 9.0 mi South 25.3 mph 41.4 mph N/A   Mostly Cloudy
7:52 PM 77.0 °F - 64.0 °F 64% 29.62 in 10.0 mi South 24.2 mph 38.0 mph N/A   Clear
8:52 PM 75.9 °F - 64.0 °F 67% 29.64 in 10.0 mi South 19.6 mph 26.5 mph N/A   Mostly Cloudy
9:52 PM 75.0 °F - 64.9 °F 71% 29.66 in 10.0 mi South 20.7 mph 27.6 mph N/A   Partly Cloudy
10:52 PM 73.9 °F - 64.9 °F 73% 29.65 in 10.0 mi South 20.7 mph 27.6 mph N/A   Clear
11:52 PM 73.0 °F - 66.0 °F 79% 29.64 in 10.0 mi South 19.6 mph 27.6 mph N/A   Clear